Regional Weather Roundup
Issued by NWS Cleveland, OH

Home | Current Version | Previous Version | Text Only | Print | Product List | Glossary On
Versions: 1 2 3 4 5 6 7 8 9 10 11 12 13 14 15 16 17 18 19 20 21 22 23 24 25 26 27 28 29 30 31 32 33 34 35 36 37 38 39 40 41 42 43 44 45 46 47 48 49 50
000
ASUS41 KCLE 200312
RWRCLE
OHIO REGIONAL WEATHER ROUNDUP
NATIONAL WEATHER SERVICE WILMINGTON, OH
1100 PM EDT THU APR 19 2018

NOTE: "FAIR" INDICATES FEW OR NO CLOUDS BELOW 12,000 FEET WITH NO
SIGNIFICANT WEATHER AND/OR OBSTRUCTIONS TO VISIBILITY.

OHZ001>008-015>018-024>027-034-035-043-044-200400-
   NORTHWEST OHIO

CITY           SKY/WX    TMP DP  RH WIND       PRES   REMARKS
DEFIANCE       FAIR      40  31  70 NW12      30.32S
FINDLAY        FAIR      44  31  60 N13       30.29R
TOLEDO EXPRESS FAIR      43  22  43 N7        30.31R
TOLEDO EXEC    FAIR      38  31  76 E6        30.33R
LIMA           FAIR      41  32  70 NW14      30.30R
$$

OHZ009>014-019>023-028>033-038-089-200400-
   NORTHEAST OHIO

CITY           SKY/WX    TMP DP  RH WIND       PRES   REMARKS
CLE-HOPKINS    FAIR      36  23  59 N9        30.32R
CLE-LAKEFRONT  FAIR      38  24  57 N13       30.29F
CUY CO. ARPT   CLEAR     36  21  55 N13       30.29S
LORAIN-ELYRIA  FAIR      35  25  66 N3        30.31R
ASHTABULA      FAIR      32  24  72 N3        30.27R
AKRON-CANTON   FAIR      35  25  66 N10       30.27R WCI  27
WOOSTER        FAIR      35  27  72 N8        30.28R WCI  29
MANSFIELD      FAIR      36  26  67 N6        30.28R
YOUNGSTOWN     FAIR      32  23  69 N12       30.25R WCI  23
$$

OHZ042-051>053-060>062-070>072-077>081-200400-
  SOUTHWEST OHIO

CITY           SKY/WX    TMP DP  RH WIND       PRES   REMARKS
CINC-COVINGTON FAIR      45  28  51 NW9       30.32R
CINC-LUNKEN    FAIR      50  27  40 NW7       30.33R
HAMILTON       FAIR      47  27  45 NW8       30.34R
DAYTON         FAIR      43  32  65 NW13      30.31S
WRIGHT-PAT AFB FAIR      46  30  55 NW12      30.30R
DAYTON GENERAL FAIR      47  29  49 NW9       30.30R
WILMINGTON     FAIR      45  29  53 NW8       30.29R
$$

OHZ036-037-039>041-045>050-054>059-063>069-073>076-082>088-200400-
  CENTRAL AND SOUTHEAST OHIO

CITY           SKY/WX    TMP DP  RH WIND       PRES   REMARKS
COLUMBUS       FAIR      44  26  49 NW9       30.26R
OSU AIRPORT    FAIR      45  28  51 NW14      30.26S
BOLTON FIELD   FAIR      43  28  55 W5        30.28R
RICKENBACK AFB FAIR      42  29  61 W5        30.26F
NEWARK         FAIR      39  33  79 NW6       30.26R
MARION         FAIR      41  25  53 N7        30.29R
LANCASTER      FAIR      37  31  78 CALM      30.27R
ZANESVILLE     FAIR      41  28  60 NW5       30.25R
NEW PHILLY     FAIR      40  25  55 N6        30.28R
$$




USA.gov is the U.S. government's official web portal to all federal, state and local government web resources and services.